Theta_e
301 300 298 300 300 300 300 302 303 302 299 298 299 297 300 299 297 297 296 296 296 296 297 298 299 302 303 302 303 303 302 301 300 299 298 297 297 296 295 295 295 295 294 292
300 300 300 300 300 301 302 301 301 300 298 297 296 297 297 296 296 296 297 296 295 295 294 296 298 299 302 303 303 302 302 301 300 299 299 298 297 296 295 295 295 295 293 291
302 301 300 301 299 302 299 300 300 300 298 294 293 299 298 297 295 297 296 295 294 294 294 296 297 298 299 301 302 302 302 301 300 299 298 297 296 295 295 295 295 294 292 290
300 299 301 300 300 298 302 297 298 298 295 297 292 301 298 296 296 296 295 294 294 294 295 295 296 297 298 300 301 301 301 300 299 298 298 297 296 295 295 295 295 293 291 288
299 299 299 300 299 297 300 296 296 293 289 292 294 293 297 296 299 297 295 294 294 294 294 295 295 296 298 299 300 300 300 299 298 297 297 296 295 295 294 294 294 292 290 288
298 296 296 298 297 297 295 294 292 289 286 293 286 292 300 300 298 295 295 293 292 293 294 294 295 296 297 298 298 299 298 298 297 296 296 296 296 295 294 294 293 292 288 289
295 298 296 296 298 297 292 289 290 293 293 297 278 292 299 299 295 296 294 292 290 291 292 292 293 295 296 296 296 296 296 296 295 295 295 295 295 295 294 294 292 290 288 289
289 292 292 295 297 296 295 289 292 289 295 294 279 292 300 295 292 291 291 290 290 291 291 291 292 293 294 295 295 295 294 295 295 295 294 293 293 294 294 293 291 288 288 289
291 293 294 295 294 292 293 289 289 283 274 287 289 291 294 295 292 291 291 292 290 289 289 290 292 294 295 294 294 294 294 294 294 294 294 293 292 292 292 291 288 288 288 289
294 290 288 294 293 292 290 290 291 287 290 289 289 282 296 291 291 289 291 289 289 289 290 290 292 293 294 293 294 294 294 294 294 294 293 293 292 292 291 289 288 288 288 289
288 286 288 294 287 289 289 288 287 288 290 292 290 294 287 287 285 287 284 286 284 285 289 288 290 292 292 293 293 293 293 296 296 294 293 292 291 291 290 287 288 288 289 288
294 292 288 289 292 292 291 288 291 293 288 285 290 293 289 285 279 277 287 286 288 287 286 286 289 290 291 291 291 292 292 292 295 294 294 293 291 290 289 287 288 288 289 287
295 286 283 288 288 290 291 292 289 286 290 288 292 293 284 277 281 279 280 286 287 289 289 288 289 290 291 291 292 292 291 291 292 292 292 292 291 289 288 287 287 288 288 287
296 292 286 288 286 285 290 292 291 290 286 291 294 290 289 291 288 286 287 286 284 285 285 285 287 289 289 290 291 291 292 292 292 291 291 292 290 289 288 287 287 287 288 287
293 289 292 289 283 284 288 288 289 289 289 294 294 293 283 282 282 282 282 282 283 284 284 284 284 287 288 289 290 290 291 292 292 290 290 290 291 289 288 286 287 287 287 287
294 286 288 287 293 294 295 295 290 293 294 291 294 295 281 280 274 281 282 281 282 284 284 284 284 286 288 288 288 289 289 291 290 289 288 288 288 288 287 286 286 287 287 286
294 286 284 285 285 284 288 288 292 289 283 291 289 287 277 279 280 277 282 284 284 285 282 283 283 287 287 287 288 289 289 289 287 286 286 285 286 286 286 286 286 286 287 286
293 289 281 286 279 285 288 287 287 288 288 281 282 280 280 280 279 279 281 281 282 283 282 285 287 287 288 288 288 289 289 290 287 286 285 284 284 285 285 285 285 286 286 285
294 294 288 285 275 285 290 290 290 290 289 286 285 282 283 283 283 284 283 281 282 282 285 285 286 286 286 287 287 289 288 289 288 285 282 282 284 284 285 284 285 285 285 283
289 292 295 280 284 285 287 288 287 288 289 286 285 285 284 284 286 286 285 285 285 286 286 286 286 285 285 286 287 288 288 288 289 290 285 282 282 283 284 284 284 285 284 282
290 292 293 292 289 285 287 287 285 286 289 285 285 284 284 285 285 285 285 285 286 286 286 286 286 286 285 286 287 286 287 287 288 291 287 283 282 283 283 283 284 284 283 282
284 284 282 284 289 289 286 285 287 286 285 285 284 284 284 285 285 285 285 285 286 286 286 286 285 286 286 285 286 285 286 287 288 290 289 284 282 282 282 281 283 284 283 282
285 284 284 286 287 286 285 286 286 285 285 284 284 284 284 284 284 285 285 285 285 286 286 286 285 284 285 285 285 285 286 287 289 289 291 286 283 282 280 280 282 283 282 282
284 283 284 284 284 285 286 285 285 284 284 285 284 284 284 284 284 285 284 285 285 285 285 284 283 284 284 283 284 285 285 287 290 290 290 287 282 281 279 279 281 282 282 281
284 281 279 283 285 283 284 284 284 284 283 283 283 283 284 284 284 284 284 284 285 284 284 282 282 282 282 282 283 284 285 287 289 289 290 287 283 282 280 279 280 282 283 283
284 286 286 287 287 286 287 284 283 282 282 283 283 282 283 283 283 284 283 284 284 283 282 281 280 280 280 279 282 283 284 286 288 288 288 287 283 282 279 278 279 280 282 283
Wind_Speed
4 7 3 2 2 1 2 2 1 1 3 5 2 9 19 9 7 8 7 6 7 8 12 18 16 21 23 23 22 22 21 21 19 16 12 10 11 9 8 8 9 11 13 13
6 4 2 1 4 4 5 2 3 3 3 2 6 16 12 5 4 3 3 5 6 7 7 10 13 14 23 24 21 20 19 20 20 16 12 9 8 8 8 9 10 11 12 12
6 0 3 3 6 4 3 3 2 3 6 3 8 7 5 3 4 3 4 3 4 6 7 5 2 9 15 20 20 18 17 18 17 15 14 13 11 11 11 10 10 11 12 13
6 4 3 4 5 2 2 2 2 3 4 2 5 4 7 5 9 5 6 5 6 7 6 4 0 5 11 14 14 15 15 15 16 16 16 16 16 16 15 13 12 12 13 13
3 4 5 7 2 2 2 3 3 2 4 3 7 4 7 5 5 6 8 8 7 6 6 5 2 3 6 11 14 14 14 15 14 15 16 18 19 18 16 14 14 13 13 13
3 1 3 2 2 2 3 3 5 3 3 3 3 3 5 2 3 7 6 8 8 7 7 7 4 1 5 9 12 13 13 12 13 14 16 18 19 18 17 15 15 14 14 14
5 3 3 3 1 1 4 6 4 5 4 4 3 2 8 5 6 4 8 10 11 7 7 7 8 6 7 8 10 11 11 11 11 13 14 16 17 17 17 16 16 15 14 15
4 6 4 6 3 3 4 5 5 4 1 4 3 4 4 2 7 7 3 7 8 10 7 7 11 13 13 13 11 11 12 14 15 17 18 17 17 18 18 16 15 15 15 16
4 2 2 3 2 2 3 3 3 7 1 3 2 7 9 3 2 7 10 11 11 9 8 7 13 13 16 17 17 18 19 22 23 22 20 19 18 19 19 17 16 15 15 16
4 3 2 2 1 4 4 3 4 3 1 4 4 5 5 4 6 6 9 7 8 7 8 8 18 25 26 23 22 21 22 25 25 22 21 21 20 19 19 18 17 15 15 15
4 4 5 1 2 6 2 2 4 3 3 5 2 6 8 7 6 1 5 5 5 6 8 9 21 27 29 29 26 26 27 25 25 23 22 22 22 22 21 22 18 16 15 13
1 4 2 6 1 1 4 5 3 4 5 1 2 7 4 7 5 4 7 7 6 6 7 11 19 24 27 29 31 30 28 30 33 26 24 26 24 24 24 24 20 17 15 13
4 2 3 7 4 4 3 4 4 3 2 6 4 5 2 2 2 3 6 7 8 11 12 8 13 17 22 27 32 34 33 31 30 35 28 28 28 28 29 27 22 18 15 13
4 3 7 6 7 4 3 4 5 5 3 4 12 8 6 11 13 12 12 8 6 8 8 7 10 16 20 24 28 32 36 35 33 31 33 33 34 32 31 27 24 20 16 13
4 4 2 5 5 3 6 6 7 10 8 8 17 14 4 5 3 5 6 7 8 8 8 7 6 16 24 27 30 32 32 37 36 33 32 38 42 38 33 29 26 21 17 14
1 3 1 5 6 8 14 11 14 19 17 14 19 30 3 3 4 6 9 8 9 9 9 9 11 18 25 27 27 30 32 34 35 34 35 36 39 39 35 32 28 23 19 16
4 4 2 6 4 6 9 13 18 5 4 8 8 7 2 5 6 5 9 12 12 13 8 10 12 24 28 30 31 31 38 40 39 35 36 34 35 40 38 34 29 26 22 17
5 5 3 4 4 2 6 3 4 9 6 6 2 3 6 7 6 9 10 10 11 9 9 14 25 27 32 34 35 38 40 42 39 38 34 31 31 36 36 33 30 25 21 19
4 4 1 2 3 8 6 5 6 5 3 5 4 4 6 6 7 6 7 5 7 8 21 26 28 31 35 38 38 39 40 40 36 33 29 30 29 36 36 34 31 26 22 19
1 3 4 2 3 6 5 3 1 3 4 6 3 6 7 9 11 9 10 15 23 30 30 30 32 33 31 35 37 33 38 38 36 33 26 24 28 34 36 34 31 25 22 17
4 3 15 8 6 9 6 5 5 4 2 3 3 6 7 6 8 16 17 19 26 30 33 35 35 32 34 36 33 33 31 34 35 31 23 21 25 33 36 33 28 24 20 16
7 6 4 2 4 10 6 3 6 1 2 5 5 6 10 12 14 16 19 20 26 28 34 35 29 34 39 31 30 33 31 35 30 29 22 23 23 27 33 31 27 26 21 18
3 6 4 9 7 1 3 3 2 3 7 5 5 9 12 14 15 17 19 20 26 31 31 31 29 37 41 32 30 34 35 34 29 28 26 24 23 24 30 31 30 25 22 17
4 5 4 1 4 6 6 3 5 4 9 13 12 13 14 16 17 17 19 19 23 31 31 28 31 33 36 37 33 35 35 31 29 28 28 24 21 23 26 28 31 29 23 18
5 5 4 9 8 9 8 9 8 7 8 8 12 13 15 17 20 18 19 21 28 30 33 31 30 31 36 37 38 35 33 30 29 29 28 25 20 22 26 31 33 33 33 29
8 8 6 11 10 9 11 6 8 8 8 12 12 12 18 17 18 23 19 30 30 30 32 33 35 32 36 38 38 34 34 28 29 27 27 22 21 23 25 26 28 25 27 26
Wind_Direction
12 67 77 11 12 64 104 82 339 17 359 337 332 286 284 298 253 279 283 285 283 276 274 265 243 226 217 216 216 218 215 212 211 211 222 243 255 264 268 277 295 306 312 314
31 77 321 86 31 81 55 89 336 295 20 345 352 292 290 299 265 231 297 315 313 307 304 288 233 207 209 208 210 211 213 210 212 222 233 244 258 262 263 273 286 300 305 310
103 162 341 110 34 53 44 104 14 253 330 76 320 301 322 319 345 334 312 342 334 316 319 326 232 205 204 203 202 203 203 205 215 226 236 244 251 259 263 270 283 297 300 305
76 338 58 71 72 33 73 343 33 11 38 289 10 277 304 344 332 14 355 348 344 348 347 352 72 174 188 191 189 191 196 207 217 229 239 246 253 257 266 273 282 293 298 302
257 21 41 62 18 16 131 46 62 70 84 59 351 74 272 357 12 5 1 350 343 348 356 355 358 186 175 180 182 188 198 210 221 236 247 251 253 257 261 265 276 287 293 300
108 69 58 110 89 64 107 82 41 61 86 38 271 85 292 358 334 320 320 338 341 340 350 2 5 215 191 186 190 200 208 219 234 248 256 258 260 260 258 263 276 286 291 298
357 6 354 35 113 50 65 54 349 1 12 212 331 14 243 288 306 273 324 343 343 345 354 345 334 311 262 243 231 221 224 237 254 267 269 267 261 254 255 263 272 281 291 298
128 334 5 349 73 168 55 132 144 208 271 273 355 237 240 140 328 337 32 334 1 10 3 351 341 325 308 289 271 262 262 268 276 277 274 266 256 252 254 259 268 278 287 296
123 303 323 29 29 64 243 57 161 103 64 33 271 290 315 115 81 32 35 36 23 6 1 339 329 315 305 297 286 279 280 282 283 280 273 264 257 250 251 256 263 272 283 293
196 55 256 266 72 35 131 143 53 10 88 294 287 275 238 312 347 1 29 10 358 353 343 336 336 334 330 313 294 280 280 287 290 281 271 265 259 251 253 254 257 267 277 285
129 89 282 108 187 181 21 16 44 114 127 176 243 262 215 208 209 188 299 292 285 302 321 324 326 333 339 337 327 302 282 279 281 278 269 259 254 249 250 250 253 260 269 277
87 131 182 216 289 212 156 190 156 131 255 215 155 270 197 219 198 175 358 332 336 332 305 313 329 337 341 340 340 335 321 290 277 278 257 249 248 242 243 246 249 251 259 266
181 328 14 342 356 350 221 204 144 122 89 202 154 251 334 321 42 308 254 353 351 341 337 337 339 339 340 341 341 338 332 317 304 277 266 251 241 234 235 238 241 242 246 256
136 153 172 195 210 137 185 201 199 144 140 196 229 268 322 328 357 356 358 339 324 314 310 305 324 327 328 328 333 333 332 328 314 298 271 253 244 239 235 234 234 234 237 246
109 199 234 257 204 195 211 196 199 203 198 208 265 253 215 256 278 275 272 304 316 308 295 298 298 315 320 321 324 325 323 324 319 301 283 261 249 241 230 227 229 228 229 238
65 257 88 278 285 254 268 241 221 233 239 255 267 276 207 229 297 327 311 297 288 289 285 299 297 309 317 311 308 311 315 315 317 300 284 275 253 239 225 222 221 221 224 229
156 133 70 270 344 334 299 236 222 194 199 210 223 253 296 318 302 281 294 294 291 293 286 297 297 305 302 300 301 304 313 319 317 303 287 268 253 236 220 218 216 218 220 222
151 125 117 258 16 310 245 201 184 197 227 213 358 279 260 256 250 257 260 263 277 280 280 291 299 295 297 298 293 303 314 319 318 308 288 266 248 230 218 215 217 218 217 221
215 164 271 204 196 300 278 179 177 181 250 140 178 262 270 272 272 241 240 228 252 259 280 288 289 291 295 295 293 299 308 314 314 314 298 272 240 223 214 215 218 218 215 225
131 243 189 95 186 240 235 226 107 97 254 189 9 320 318 336 320 318 312 309 302 298 295 293 293 294 289 289 289 288 299 303 306 322 308 277 248 230 222 219 218 217 216 223
169 192 220 219 243 279 239 212 134 115 235 260 274 292 302 296 273 290 297 292 292 291 291 294 295 290 287 289 285 282 287 287 307 315 312 285 255 236 231 225 219 216 215 214
172 157 190 143 219 274 169 85 173 159 264 273 245 247 270 279 289 293 295 295 295 295 299 297 293 293 292 287 287 282 278 285 301 308 311 286 261 239 232 223 214 215 215 209
271 192 192 192 212 207 199 217 209 195 244 232 254 295 282 287 286 293 293 291 291 295 294 295 297 297 293 290 286 280 272 281 293 301 298 286 266 240 231 220 215 211 205 208
245 192 224 41 247 231 244 236 254 235 313 312 291 286 287 284 285 289 293 289 290 294 296 297 297 293 290 294 290 277 272 279 280 283 289 280 255 237 228 224 219 211 202 206
197 146 208 260 277 290 270 257 246 270 272 273 274 270 278 282 282 283 290 289 291 295 298 298 293 288 285 294 288 280 276 272 264 279 275 274 259 243 233 226 218 215 221 222
208 229 222 257 256 257 282 234 244 254 253 269 271 278 278 277 274 284 285 284 286 291 295 293 289 285 289 293 285 277 274 268 263 258 265 264 259 244 229 221 222 225 231 235